Regional Weather Roundup
Issued by NWS

Home | Current Version | Previous Version | Graphics & Text | Print | Product List | Glossary Off
Versions: 1 2 3 4 5 6 7 8 9 10 11 12 13 14 15 16 17 18 19 20 21 22 23 24 25 26 27 28 29 30 31 32 33 34 35 36 37 38 39 40 41 42 43 44 45 46 47 48 49 50

000
ASUS43 KLSX 200607
RWRMO

WEATHER SUMMARY FOR MISSOURI
NATIONAL WEATHER SERVICE SPRINGFIELD MO
100 AM CDT SUN APR 20 2014

NOTE: "FAIR" INDICATES FEW OR NO CLOUDS BELOW 12,000 FEET WITH NO
       SIGNIFICANT WEATHER AND/OR OBSTRUCTIONS TO VISIBILITY.
       CURRENT SKY AND/OR WEATHER CONDITIONS ARE NOT AVAILABLE FOR
       CHILLICOTHE AND FARMINGTON.

MOZ001>031-035>038-043-044-053-054-200700-
...NORTHERN AND WESTERN MISSOURI...

CITY           SKY/WX    TMP DP  RH WIND       PRES   REMARKS
KANSAS CTY INT FAIR      56  44  64 S9        30.09S
6HR MIN TEMP:  56; 6HR MAX TEMP:  72;

KANSAS C DTWN  FAIR      66  45  46 S5        30.09R
6HR MIN TEMP:  64; 6HR MAX TEMP:  74;

LEE`S SUMMIT   FAIR      63  44  50 S9        30.11S
6HR MIN TEMP:  62; 6HR MAX TEMP:  73;

ST JOSEPH      FAIR      57  45  64 S6        30.08S
6HR MIN TEMP:  56; 6HR MAX TEMP:  75;

CHILLICOTHE      N/A     55  44  66 CALM      30.12R
6HR MIN TEMP:  54; 6HR MAX TEMP:  74;

KIRKSVILLE     FAIR      51  40  65 S8        30.14S
6HR MIN TEMP:  51; 6HR MAX TEMP:  72;


$$
MOZ066>068-077>081-088>096-101>105-200700-
...SOUTHWEST MISSOURI...

CITY           SKY/WX    TMP DP  RH WIND       PRES   REMARKS
SPRINGFIELD    FAIR      60  44  55 SE10      30.14S
6HR MIN TEMP:  58; 6HR MAX TEMP:  72;

JOPLIN         FAIR      60  45  57 SE6       30.13R
6HR MIN TEMP:  58; 6HR MAX TEMP:  73;


$$
MOZ032>034-039>042-045>050-055>058-069>072-200700-
...CENTRAL MISSOURI...

CITY           SKY/WX    TMP DP  RH WIND       PRES   REMARKS
COLUMBIA       FAIR      59  41  51 SE7       30.14S
6HR MIN TEMP:  59; 6HR MAX TEMP:  73;

JEFFERSON CITY FAIR      58  41  53 E6        30.14R
6HR MIN TEMP:  56; 6HR MAX TEMP:  77;

ROLLA          FAIR      58  39  49 S6        30.15S
6HR MIN TEMP:  56; 6HR MAX TEMP:  71;

SEDALIA        FAIR      60  42  51 SE6       30.13S
6HR MIN TEMP:  60; 6HR MAX TEMP:  74;

WHITEMAN AFB   FAIR      60  38  43 S5        30.11S
OSAGE BEACH    FAIR      59  37  44 SE5       30.16R

$$
MOZ051-052-059>065-200700-
...EAST CENTRAL MISSOURI...

CITY           SKY/WX    TMP DP  RH WIND       PRES   REMARKS
ST LOUIS INTL  FAIR      59  41  51 SE7       30.17F
6HR MIN TEMP:  57; 6HR MAX TEMP:  73;

SPIRIT OF STL  FAIR      56  42  59 CALM      30.16F
6HR MIN TEMP:  55; 6HR MAX TEMP:  72;

ST CHARLES     FAIR      54  43  66 E6        30.17S
6HR MIN TEMP:  53; 6HR MAX TEMP:  72;


$$
MOZ072>076-082>087-097>100-106>115-200700-
...SOUTH CENTRAL AND SOUTHEAST MISSOURI...

CITY           SKY/WX    TMP DP  RH WIND       PRES   REMARKS
CAPE GIRARDEAU FAIR      51  47  86 E3        30.17F
6HR MIN TEMP:  51; 6HR MAX TEMP:  72;

FARMINGTON     FAIR      50  41  71 CALM      30.20S
6HR MIN TEMP:  50; 6HR MAX TEMP:  72;

POPLAR BLUFF   FAIR      55  44  66 N3        30.16S
6HR MIN TEMP:  53; 6HR MAX TEMP:  74;

WEST PLAINS    FAIR      52  40  63 CALM      30.18S
6HR MIN TEMP:  51; 6HR MAX TEMP:  73;


$$



USA.gov is the U.S. government's official web portal to all federal, state and local government web resources and services.